Chippewa, MI

3:27 AM EDT on October 15, 2019 (GMT -0400)
Chippewa County International

Weather History for KCIU - September, 2019

Change the Weather History Date:

Sunday, September 15, 2019

  Actual Average Record
Temperature  
Mean Temperature 57 °F -  
Max Temperature 66 °F 64 °F 82 °F (2004)
Min Temperature 48 °F 41 °F 26 °F (1983)
Degree Days  
Heating Degree Days 8    
Growing Degree Days 7 (Base 50)    
Moisture  
Dew Point 52 °F    
Average Humidity 83    
Maximum Humidity 100    
Minimum Humidity 64    
Precipitation  
Precipitation 0.02 in - - ()
Sea Level Pressure  
Sea Level Pressure 30.12 in    
Wind  
Wind Speed 7 mph ()    
Max Wind Speed 15 mph    
Max Gust Speed -    
Visibility 10.0 miles    
Events Rain    
Averages and records for this station are not official NWS values.
T = Trace of Precipitation, MM = Missing Value Source: Averaged Metar Reports

Daily Weather History Graph

Daily Weather History Graph

Search for Another Location

Airport or City:

Astronomy

Sep. 15, 2019 Rise Set
Actual Time 7:15 AM EDT 7:49 PM EDT
Civil Twilight 6:45 AM EDT 8:19 PM EDT
Nautical Twilight 6:09 AM EDT 8:55 PM EDT
Astronomical Twilight 5:32 AM EDT 9:32 PM EDT
Moon 8:53 PM EDT 8:26 AM EDT
Length of Visible Light 13h 34m
Length of Day
12h 34m
Full, 98% of the Moon is Illuminated
Sep 15
Full
Sep 21
Last Quarter
Sep 28
New
Oct 5
First Quarter
Oct 13
Full

Hourly Weather History & Observations

Time (EDT) Temp. Dew Point Humidity Pressure Visibility Wind Dir Wind Speed Gust Speed Precip Events Conditions
12:56 AM 48.9 °F 45.0 °F 86% 30.17 in 10.0 mi WNW 3.5 mph - N/A   Partly Cloudy
1:56 AM 48.9 °F 48.0 °F 97% 30.17 in 10.0 mi Calm Calm - 0.00 in Rain Light Rain
2:15 AM 48.2 °F 48.2 °F 100% 30.16 in 10.0 mi Calm Calm - 0.00 in Rain Light Rain
2:56 AM 48.9 °F 48.0 °F 97% 30.17 in 10.0 mi Calm Calm - 0.01 in Rain Light Rain
3:27 AM 48.2 °F 48.2 °F 100% 30.15 in 10.0 mi ESE 4.6 mph - 0.00 in Rain Light Rain
3:56 AM 50.0 °F 48.0 °F 93% 30.14 in 10.0 mi SE 5.8 mph - 0.01 in Rain Light Rain
4:56 AM 50.0 °F 48.9 °F 96% 30.13 in 10.0 mi ESE 5.8 mph - 0.00 in Rain Light Rain
5:56 AM 50.0 °F 48.9 °F 96% 30.15 in 10.0 mi South 3.5 mph - 0.00 in   Overcast
6:56 AM 50.0 °F 48.0 °F 93% 30.14 in 10.0 mi SSE 5.8 mph - 0.00 in   Overcast
7:56 AM 50.0 °F 48.0 °F 93% 30.15 in 10.0 mi ESE 6.9 mph - N/A   Overcast
8:56 AM 53.1 °F 48.9 °F 86% 30.15 in 10.0 mi SE 10.4 mph - N/A   Clear
9:42 AM 53.6 °F 51.8 °F 94% 30.15 in 10.0 mi SE 11.5 mph - N/A   Scattered Clouds
9:56 AM 55.0 °F 52.0 °F 89% 30.16 in 10.0 mi SE 9.2 mph - N/A   Mostly Cloudy
10:06 AM 55.4 °F 51.8 °F 88% 30.15 in 10.0 mi SE 13.8 mph - N/A   Overcast
10:56 AM 55.9 °F 52.0 °F 87% 30.16 in 10.0 mi SE 10.4 mph - N/A   Overcast
11:06 AM 55.4 °F 51.8 °F 88% 30.15 in 10.0 mi SE 11.5 mph - N/A   Overcast
11:56 AM 57.0 °F 52.0 °F 83% 30.15 in 10.0 mi SE 13.8 mph - N/A   Overcast
12:56 PM 59.0 °F 53.1 °F 81% 30.14 in 10.0 mi ESE 10.4 mph - N/A   Overcast
1:25 PM 60.8 °F 53.6 °F 77% 30.13 in 10.0 mi ESE 12.7 mph - N/A   Overcast
1:56 PM 62.1 °F 53.1 °F 72% 30.13 in 10.0 mi ESE 10.4 mph - N/A   Overcast
2:56 PM 63.0 °F 53.1 °F 70% 30.11 in 10.0 mi SE 11.5 mph - N/A   Overcast
3:39 PM 64.4 °F 53.6 °F 68% 30.09 in 10.0 mi SE 10.4 mph - N/A   Scattered Clouds
3:56 PM 64.9 °F 54.0 °F 68% 30.09 in 10.0 mi SSE 13.8 mph - N/A   Mostly Cloudy
4:04 PM 66.2 °F 53.6 °F 64% 30.09 in 10.0 mi SSE 11.5 mph - N/A   Scattered Clouds
4:14 PM 66.2 °F 53.6 °F 64% 30.08 in 10.0 mi SSE 12.7 mph - N/A   Mostly Cloudy
4:28 PM 64.4 °F 53.6 °F 68% 30.07 in 10.0 mi SE 13.8 mph - N/A   Mostly Cloudy
4:51 PM 64.4 °F 53.6 °F 68% 30.07 in 10.0 mi ESE 9.2 mph - N/A   Overcast
4:56 PM 64.0 °F 53.1 °F 67% 30.07 in 10.0 mi ESE 11.5 mph - N/A   Overcast
5:48 PM 62.6 °F 53.6 °F 72% 30.08 in 10.0 mi SSE 13.8 mph - N/A   Overcast
5:56 PM 62.1 °F 53.1 °F 72% 30.08 in 10.0 mi SSE 13.8 mph - N/A   Overcast
6:56 PM 60.1 °F 53.1 °F 78% 30.08 in 10.0 mi SE 15.0 mph - N/A   Clear
7:30 PM 59.0 °F 53.6 °F 82% 30.08 in 10.0 mi SE 9.2 mph - N/A   Mostly Cloudy
7:56 PM 57.9 °F 52.0 °F 81% 30.08 in 10.0 mi SE 10.4 mph - N/A   Overcast
8:56 PM 57.0 °F 53.1 °F 87% 30.08 in 10.0 mi SE 10.4 mph - N/A   Overcast
9:56 PM 57.0 °F 53.1 °F 87% 30.10 in 10.0 mi ESE 5.8 mph - N/A   Overcast
10:56 PM 55.9 °F 54.0 °F 93% 30.09 in 10.0 mi ESE 8.1 mph - N/A   Overcast
11:21 PM 55.4 °F 53.6 °F 94% 30.08 in 10.0 mi SE 6.9 mph - N/A   Mostly Cloudy
11:56 PM 55.9 °F 54.0 °F 93% 30.08 in 10.0 mi SSE 6.9 mph - N/A   Mostly Cloudy